Flag for Canada Weather past 2 weeks in Québec, Quebec, Canada

Now
54 °F

Passing clouds.


Feels Like: 53 °F
Forecast: 54 / 75 °F
Wind: 3 mph from West

Location: Quebec Weather Station

Current Time: Jul 25, 2014 at 5:41:43 AM

Latest Report: Jul 25, 2014 at 5:00 AM


Visibility: 20 mi

Pressure: 29.86 "Hg

Humidity: 94%

Dew point: 52 °F

Location of QuébecLocation

Historic Weather in Québec — Graph

°F

Québec temperature yesterday

Maximum temperature yesterday: 73 °F (at 4:00 PM)
Minimum temperature yesterday: 54 °F (at 5:00 AM)
Average temperature yesterday: 63 °F

Past Weeks' High & Low Weather Summary

 TemperatureHumidityPressure
High84 °F (Jul 21, 3:00 PM)100% (Jul 16, 4:00 AM)30.27 "Hg (Jul 16, 4:00 AM)
Low50 °F (Jul 11, 6:00 AM)38% (Jul 24, 4:00 PM)29.66 "Hg (Jul 13, 10:00 PM)
Average68 °F72%29.97 "Hg
* Reported Jul 10 4:00 AM — Jul 25 4:00 AM, Québec, Weather by CustomWeather, © 2014

Note: Actual official high and low records may vary slightly from our data, if they occured in-between our weather recording intervals... More about our weather records

Advertising

Québec weather history for previous 24 hours

 ConditionsComfort  
Time TempWeatherWind HumidityBarometerVisibility
4:00 AM
Jul 25
57 °FPassing clouds.No wind88%29.87 "Hg15 mi
3:00 AM55 °FPassing clouds.6 mph94%29.86 "Hg15 mi
2:00 AM55 °FPassing clouds.3 mph88%29.86 "Hg15 mi
1:00 AM59 °FPassing clouds.7 mph82%29.86 "Hg15 mi
12:00 AM61 °FPassing clouds.7 mph77%29.85 "Hg15 mi
11:00 PM
Jul 24
59 °FPassing clouds.9 mph77%29.84 "Hg15 mi
10:00 PM61 °FClear.3 mph72%29.84 "Hg15 mi
9:00 PM63 °FScattered clouds.3 mph68%29.84 "Hg15 mi
8:00 PM66 °FOvercast.6 mph60%29.83 "Hg30 mi
7:00 PM70 °FPassing clouds.13 mph50%29.83 "Hg30 mi
6:00 PM73 °FPassing clouds.14 mph41%29.83 "Hg30 mi
5:00 PM73 °FPassing clouds.15 mph38%29.83 "Hg30 mi
4:00 PM73 °FPassing clouds.15 mph38%29.84 "Hg30 mi
3:00 PM72 °FPassing clouds.14 mph44%29.86 "Hg30 mi
2:00 PM70 °FPassing clouds.8 mph43%29.88 "Hg30 mi
1:00 PM68 °FScattered clouds.8 mph46%29.88 "Hg30 mi
12:00 PM66 °FScattered clouds.10 mph46%29.89 "Hg30 mi
11:00 AM64 °FBroken clouds.7 mph49%29.91 "Hg30 mi
10:00 AM64 °FBroken clouds.10 mph49%29.92 "Hg30 mi
9:00 AM61 °FScattered clouds.6 mph55%29.93 "Hg30 mi
8:00 AM59 °FPassing clouds.3 mph59%29.93 "Hg30 mi
7:00 AM54 °FScattered clouds.3 mph72%29.92 "Hg30 mi
6:00 AM54 °FPartly cloudy.5 mph72%29.90 "Hg30 mi
5:00 AM54 °FPassing clouds.6 mph67%29.88 "Hg15 mi
Weather by CustomWeather, © 2014

See weather overviewHow to use our weather pages